ICEYE-X15 (48917 NORAD) Tracking and Keplerian Element Data

This shows tracking and keplerian element data for the satellite.

Feedback or suggestion? Click here.




ElementValue
Catalog48917
NameICEYE-X15
Epoch Orbit1395
Epoch Day269.12560259
Epoch Year2021
RAAN36.6598
Inclination97.524
Eccentricity0.0011031
Argument of Perigee288.7171
Mean Anonmoly244.2275
Mean Motion15.13031539
Decay Rate1.964E-05
L11 48917U 21059AQ 21269.12560259 .00001964 00000-0 11474-3 0 9996
L22 48917 97.5240 36.6598 0011031 288.7171 244.2275 15.13031539 13950

Live tracking and technical data element details for ICEYE-X15 (NORAD 48917). ICEYE-X15 can be tracked NOW for your location showing map with azimuth and elevation plus other details from your city location.

Track the satellite on the map from your city or location and see movement details for azimuth, elevation, latitude, longitude, range, height, and movement on the map or in text.







IsCatalogInMostPopularTable: catalog: 48917, numindb: 15
Update: records affected: 1



GetName: 48917 ICEYE-X15

Hit Count: updated at: Sun, 26 Sep 2021 16:53:27 GMT